Location: ??????
(56.0120°N, 39.1740°E)
Time: 07:14:03
(UTC+00:00)

Cosmos 1864 Rocket - Pass Details

Date: 14 April 2026
Orbit: 951 x 995 km, 82.9° (Epoch: 13 May)

Event Time Altitude Azimuth Distance (km) Brightness Sun altitude
Exits shadow 21:23:05 53° 194° (SSW) 1,199 4.5 -24.3°
Maximum altitude 21:24:44 87° 281° (WNW) 997 4.4 -24.3°
Drops below altitude 10° 21:31:08 10° 11° (NNE) 2,771 7.9 -24.3°
Sets 21:33:40 0° 12° (NNE) 3,727 8.9 -24.3°
